Corpus Christi, TX

6:41 PM CDT on May 26, 2018 (GMT -0500)
Corpus Christi International

Weather History for KCRP - June, 2013

Change the Weather History Date:

Thursday, June 27, 2013

  Actual Average Record
Temperature  
Mean Temperature 87 °F 83 °F  
Max Temperature 97 °F 92 °F 101 °F (1980)
Min Temperature 77 °F 75 °F 62 °F (1974)
Degree Days  
Heating Degree Days 0 0  
Month to date heating degree days 0 0  
Since 1 June heating degree days 0 0  
Since 1 July heating degree days 529 898  
Cooling Degree Days 22 18  
Month to date cooling degree days 589 466  
Year to date cooling degree days 1607 1307  
Since 1 June cooling degree days 589 466  
Growing Degree Days 37 (Base 50)    
Moisture  
Dew Point 73 °F    
Average Humidity 65    
Maximum Humidity 85    
Minimum Humidity 45    
Precipitation  
Precipitation 0.00 in 0.12 in 8.03 in (1931)
Month to date precipitation 1.00 3.01  
Year to date precipitation 5.73 13.28  
Snow  
Snow 0.00 in - - ()
Month to date snowfall 0.0  
Since 1 June snowfall 0.0  
Since 1 July snowfall 0.0  
Snow Depth 0.00 in    
Sea Level Pressure  
Sea Level Pressure 29.96 in    
Wind  
Wind Speed 11 mph (SSE)    
Max Wind Speed 21 mph    
Max Gust Speed 26 mph    
Visibility 10 miles    
Events      
T = Trace of Precipitation, MM = Missing Value Source: NWS Daily Summary

Daily Weather History Graph

Daily Weather History Graph

Search for Another Location

Airport or City:

Astronomy

Jun. 27, 2013 Rise Set
Actual Time 6:36 AM CDT 8:29 PM CDT
Civil Twilight 6:09 AM CDT 8:56 PM CDT
Nautical Twilight 5:37 AM CDT 9:28 PM CDT
Astronomical Twilight 5:03 AM CDT 10:02 PM CDT
Moon 11:57 PM CDT (6/27) 11:12 AM CDT (6/27)
Length of Visible Light 14h 46m
Length of Day
13h 53m
Waning Gibbous, 76% of the Moon is Illuminated
Jun 27
Waning Gibbous
Jun 29
Last Quarter
Jul 8
New
Jul 15
First Quarter
Jul 22
Full

Hourly Weather History & Observations

Time (CDT) Temp. Heat Index Dew Point Humidity Pressure Visibility Wind Dir Wind Speed Gust Speed Precip Events Conditions
12:51 AM 81.0 °F 86.7 °F 75.0 °F 82% 29.97 in 10.0 mi SSE 9.2 mph - N/A   Partly Cloudy
1:51 AM 80.1 °F 84.5 °F 73.9 °F 81% 29.96 in 10.0 mi SSE 8.1 mph - N/A   Partly Cloudy
2:51 AM 80.1 °F 84.5 °F 73.9 °F 81% 29.97 in 10.0 mi South 9.2 mph - N/A   Scattered Clouds
3:51 AM 80.1 °F 84.5 °F 73.9 °F 81% 29.96 in 10.0 mi SSE 9.2 mph - N/A   Partly Cloudy
4:51 AM 79.0 °F - 73.9 °F 84% 29.96 in 10.0 mi SSE 6.9 mph - N/A   Partly Cloudy
5:51 AM 78.1 °F - 73.9 °F 87% 29.96 in 9.0 mi SSE 6.9 mph - N/A   Mostly Cloudy
6:11 AM 78.8 °F - 73.4 °F 83% 29.97 in 10.0 mi SSE 5.8 mph - N/A   Partly Cloudy
6:51 AM 78.1 °F - 73.9 °F 87% 29.97 in 10.0 mi SE 5.8 mph - N/A   Scattered Clouds
7:51 AM 80.1 °F 85.1 °F 75.0 °F 85% 29.98 in 8.0 mi SE 6.9 mph - N/A   Partly Cloudy
8:51 AM 84.0 °F 91.9 °F 75.0 °F 74% 30.00 in 10.0 mi SSE 11.5 mph - N/A   Scattered Clouds
9:51 AM 88.0 °F 95.6 °F 73.0 °F 61% 30.00 in 10.0 mi South 13.8 mph - N/A   Scattered Clouds
10:51 AM 91.9 °F 99.5 °F 72.0 °F 52% 29.99 in 10.0 mi South 12.7 mph 18.4 mph N/A   Partly Cloudy
11:51 AM 93.9 °F 100.8 °F 71.1 °F 47% 29.98 in 10.0 mi ESE 4.6 mph 17.3 mph N/A   Scattered Clouds
12:51 PM 95.0 °F 102.5 °F 71.1 °F 46% 29.97 in 10.0 mi SSE 11.5 mph 21.9 mph N/A   Scattered Clouds
1:51 PM 97.0 °F 104.8 °F 71.1 °F 43% 29.96 in 10.0 mi SSE 11.5 mph 19.6 mph N/A   Scattered Clouds
2:51 PM 95.0 °F 103.2 °F 72.0 °F 47% 29.94 in 10.0 mi SE 17.3 mph 24.2 mph N/A   Partly Cloudy
3:51 PM 95.0 °F 103.2 °F 72.0 °F 47% 29.94 in 10.0 mi SE 15.0 mph 21.9 mph N/A   Scattered Clouds
4:51 PM 93.9 °F 102.1 °F 72.0 °F 49% 29.93 in 10.0 mi SE 13.8 mph 24.2 mph N/A   Partly Cloudy
5:51 PM 93.0 °F 101.9 °F 73.0 °F 52% 29.93 in 10.0 mi SE 15.0 mph - N/A   Partly Cloudy
6:51 PM 90.0 °F 97.9 °F 73.0 °F 57% 29.92 in 10.0 mi SE 18.4 mph - N/A   Partly Cloudy
7:51 PM 87.1 °F 95.4 °F 73.9 °F 65% 29.93 in 10.0 mi SSE 18.4 mph - N/A   Partly Cloudy
8:51 PM 84.9 °F 93.3 °F 75.0 °F 72% 29.94 in 10.0 mi SE 13.8 mph - N/A   Partly Cloudy
9:51 PM 84.0 °F 92.6 °F 75.9 °F 76% 29.94 in 10.0 mi SSE 11.5 mph - N/A   Partly Cloudy
10:51 PM 82.9 °F 90.8 °F 75.9 °F 79% 29.95 in 10.0 mi SSE 11.5 mph - N/A   Partly Cloudy
11:51 PM 82.0 °F 88.6 °F 75.0 °F 79% 29.96 in 10.0 mi South 8.1 mph - N/A   Partly Cloudy